Theta_e
275 276 276 276 276 276 275 275 275 274 276 275 273 273 275 275 270 268 274 276 274 276 279 281 282 283 283 282 283 284 284 284 284 284 285 286 289 289 290 291 291 291 291 292 293 295 296 296 296 294 294 295 296 297 298 300 300 300 301 301 301 301 301 300 301 301 301 299 298 297 295 293 292 291 291 291 290 290 290 290 290 290 289 289 289 289 289
275 275 276 276 275 275 275 275 275 276 276 275 275 275 276 276 274 276 276 277 276 278 279 282 282 285 284 284 284 284 284 283 283 284 285 287 288 288 288 289 289 289 290 291 293 294 295 296 296 296 296 296 296 297 298 298 299 300 299 299 300 300 299 300 300 300 299 297 296 294 292 291 291 290 290 290 289 289 289 289 289 289 289 289 289 288 288
272 275 276 276 275 274 273 275 276 276 276 276 276 276 277 277 276 276 275 273 274 279 283 282 284 286 284 283 282 282 282 282 282 284 286 287 287 288 288 289 289 289 289 290 292 294 295 295 296 296 297 298 297 296 296 297 298 298 297 297 298 298 298 299 299 298 297 295 293 292 291 290 290 289 289 289 289 288 288 288 288 288 288 288 288 288 288
269 274 274 274 275 274 273 273 274 275 275 273 275 274 275 273 271 273 273 272 273 279 281 281 282 283 281 281 280 280 281 282 282 284 286 287 287 287 288 288 288 287 289 290 292 293 294 295 295 295 296 297 297 296 296 296 297 296 295 296 297 297 298 297 296 295 294 292 291 291 290 289 289 289 289 288 288 288 288 288 287 287 287 288 288 288 288
268 274 274 273 273 272 270 271 274 275 275 275 274 274 275 275 275 272 270 272 277 278 280 278 280 282 281 281 280 280 281 281 283 285 286 287 287 287 287 287 287 287 288 290 292 293 294 295 294 295 296 296 296 298 297 297 296 295 295 295 295 296 296 295 294 293 292 291 291 290 290 289 289 288 288 288 288 287 287 288 287 287 287 287 287 287 287
269 273 273 274 270 262 265 275 277 275 272 273 271 272 274 276 277 275 277 276 278 279 278 278 279 281 280 280 281 282 281 281 283 286 287 287 287 287 288 287 287 287 288 290 292 293 294 293 293 294 295 296 298 298 298 296 295 294 294 294 294 294 293 293 293 292 291 291 290 290 289 289 288 288 287 288 288 288 288 287 286 286 286 286 287 286 287
267 271 271 267 263 265 274 277 277 277 276 275 274 275 276 277 278 277 276 277 278 279 279 280 281 281 281 281 281 281 283 283 284 286 287 286 286 287 287 286 286 287 288 290 292 293 293 292 292 294 297 297 297 297 297 295 293 293 293 293 293 293 292 292 292 291 291 290 290 289 289 288 288 288 288 288 287 287 287 286 286 287 286 286 286 286 286
270 268 266 260 261 272 275 276 277 278 277 277 275 273 276 277 277 277 276 278 279 279 279 281 281 280 280 281 281 281 282 284 286 285 284 285 286 286 286 285 286 286 288 289 291 292 292 292 293 295 296 295 294 294 295 294 293 293 293 292 293 293 292 292 291 291 290 290 290 289 288 288 288 287 288 288 287 287 287 286 287 287 286 286 286 285 286
265 264 265 265 271 270 272 272 273 274 272 273 272 268 272 277 279 278 277 278 278 279 280 280 280 280 280 278 280 281 282 283 284 285 285 285 286 286 286 286 286 287 289 291 292 292 291 292 293 294 294 293 293 293 293 292 292 292 292 291 292 292 292 292 291 291 290 290 289 288 288 287 287 287 287 287 287 287 286 286 286 286 286 286 286 286 285
269 264 262 263 262 260 266 273 276 278 278 277 277 274 272 278 278 279 278 277 278 279 279 279 280 280 277 275 277 281 282 283 284 285 286 286 286 286 286 286 287 288 289 291 292 291 290 291 293 294 293 292 292 292 292 292 291 291 291 291 292 292 292 292 292 291 290 290 289 288 288 288 288 288 288 288 287 287 286 286 285 286 286 286 286 286 285
265 262 261 260 259 262 272 272 275 277 278 278 279 273 268 276 277 278 278 278 278 278 278 279 280 277 273 274 278 282 282 283 284 284 285 285 286 286 286 286 286 288 289 291 291 290 290 291 293 292 291 291 291 291 291 292 291 291 291 291 292 291 292 292 291 291 290 290 289 288 288 288 288 288 287 287 287 286 287 287 286 286 286 286 285 285 285
263 263 261 259 260 263 270 274 276 277 279 279 274 263 264 275 278 279 278 278 278 278 279 279 278 276 273 275 279 283 283 284 284 284 284 285 286 286 287 287 288 288 289 290 289 289 290 291 292 291 291 290 289 290 291 292 291 291 291 292 292 293 292 292 291 290 290 289 289 289 288 288 288 288 288 287 286 286 286 287 286 285 285 285 284 284 284
266 267 264 265 266 273 276 275 277 277 278 275 266 262 270 278 279 279 279 278 279 279 279 279 277 279 280 281 283 284 284 284 284 285 286 286 286 286 286 287 288 288 288 289 288 289 291 292 291 291 290 289 289 290 290 291 291 291 292 293 293 293 292 292 290 290 290 289 289 289 289 288 288 287 287 287 286 285 285 286 285 284 284 284 284 283 284
265 264 262 263 266 273 276 277 278 278 274 265 265 275 280 279 279 280 280 279 280 280 280 280 280 281 283 283 284 283 283 283 284 284 285 286 286 287 287 287 287 288 288 288 288 289 291 292 291 290 290 289 289 289 290 290 291 293 293 293 292 291 291 290 290 289 289 289 289 289 288 288 287 287 287 287 286 285 286 285 284 283 283 283 283 283 283
269 268 263 262 259 270 276 277 276 278 270 272 278 279 280 281 280 280 280 281 281 281 280 281 282 282 282 283 283 284 284 284 284 285 285 285 285 285 286 286 287 287 287 287 288 289 291 291 290 290 289 288 289 289 289 290 293 293 293 293 291 290 290 289 289 289 289 289 289 289 288 288 287 286 286 286 285 285 285 284 283 283 282 283 283 282 282
265 264 261 261 270 274 278 276 271 275 277 280 280 280 278 281 281 281 281 281 282 282 281 281 282 282 282 283 283 283 284 284 284 285 285 285 285 285 286 286 287 287 287 287 288 289 290 290 290 289 289 288 289 289 289 292 292 292 292 292 290 289 289 289 289 289 288 288 288 288 288 287 287 286 285 285 285 285 284 284 283 282 282 283 282 282 281
269 266 269 274 276 277 278 278 278 279 281 281 281 281 281 280 280 283 281 281 283 283 282 282 282 281 281 282 282 282 282 282 283 283 284 284 285 285 285 285 286 287 286 286 287 288 290 289 289 289 289 289 288 288 291 292 291 291 291 290 289 289 288 288 288 288 288 288 288 288 288 287 286 286 285 285 284 285 285 284 283 283 282 283 282 282 281
276 277 277 278 278 278 278 280 281 280 281 282 282 281 280 282 282 283 281 282 281 281 281 279 279 280 280 280 280 281 281 282 282 283 284 284 284 285 285 285 285 286 286 287 287 288 289 289 289 289 289 289 288 290 292 292 292 291 290 289 289 289 288 288 288 288 287 288 288 287 287 288 287 287 285 285 285 284 284 284 284 284 283 283 282 283 282
271 267 276 275 276 277 278 279 281 282 282 281 282 282 282 281 281 280 281 280 279 278 277 275 275 275 274 272 272 273 274 275 276 277 278 280 281 282 282 284 285 285 286 286 287 287 287 288 289 289 289 290 290 291 291 292 291 290 289 289 288 288 288 288 288 287 287 287 287 287 287 287 287 287 286 285 285 284 284 284 284 283 283 282 282 282 282
271 271 275 277 278 279 279 279 279 280 281 281 281 280 280 280 280 277 272 270 269 269 268 269 269 269 269 268 269 271 271 271 272 273 274 276 278 279 281 284 285 285 286 286 286 286 287 288 289 289 290 290 291 291 291 291 290 289 288 288 288 288 287 287 287 287 287 286 287 287 287 287 287 286 286 286 285 285 285 285 284 284 283 283 283 282 282
274 276 277 278 278 278 279 280 280 280 279 278 278 279 276 270 267 267 268 269 267 267 267 268 267 267 267 268 268 268 269 269 269 270 271 274 277 279 281 283 284 285 285 286 286 286 287 288 289 289 289 290 290 290 290 290 289 288 288 287 287 287 287 287 287 287 287 287 287 287 287 286 287 287 286 286 286 286 287 287 286 285 284 284 284 284 284
270 271 274 277 272 271 273 275 277 278 279 278 273 269 267 267 266 266 265 265 266 266 266 266 266 265 266 267 268 267 268 268 269 269 270 271 274 279 281 283 284 285 286 286 286 286 287 288 289 288 289 289 290 290 290 289 288 287 287 287 287 287 287 287 287 287 287 287 287 287 287 286 286 286 286 288 288 287 286 287 288 289 288 286 286 285 285
270 276 277 277 274 273 274 276 277 277 275 270 266 266 265 265 265 265 264 263 264 264 265 266 265 265 265 266 267 267 268 268 269 269 269 270 272 277 280 282 283 284 285 286 286 286 287 287 288 288 289 290 290 290 289 288 288 287 287 287 287 287 286 287 287 287 287 287 287 287 287 286 286 286 286 287 288 289 288 287 288 288 289 289 288 288 286
275 276 274 273 272 270 273 275 273 272 271 267 265 265 265 264 264 264 264 263 262 263 263 264 265 265 266 266 267 267 268 268 269 269 270 271 274 279 282 282 283 284 285 285 285 286 287 287 288 289 289 289 290 290 289 287 287 287 287 287 287 287 287 287 287 287 287 287 287 287 286 286 286 285 285 284 285 286 287 287 288 288 289 289 289 288 288
270 272 271 271 270 270 270 270 271 270 268 266 264 264 264 264 264 264 263 262 263 263 263 263 265 266 266 266 267 267 267 268 269 270 271 273 277 281 282 283 283 284 284 285 285 286 287 287 287 287 287 288 288 288 288 287 287 286 287 287 287 287 287 287 287 286 287 287 287 287 286 286 286 285 285 283 282 281 283 287 288 288 288 288 288 288 288
270 271 269 267 267 268 270 268 266 266 265 265 264 263 264 264 263 262 262 262 262 263 263 264 264 266 267 267 267 268 269 269 270 271 272 274 279 281 281 281 282 284 284 284 284 283 282 283 284 285 285 286 287 287 286 286 286 286 287 287 287 287 287 286 286 286 286 286 286 286 286 286 286 285 285 284 283 282 281 282 283 285 287 288 288 288 288
271 268 264 264 264 266 267 263 262 264 264 264 264 263 263 262 263 262 262 263 263 264 264 265 266 268 268 269 269 269 269 270 271 272 274 278 278 275 275 277 279 278 277 276 275 276 278 280 281 282 283 283 283 285 285 286 286 286 286 286 287 286 285 285 286 285 285 286 285 286 285 285 284 284 285 284 283 282 282 281 281 281 282 285 287 287 286
268 265 264 260 260 261 262 263 263 263 263 263 263 262 262 261 261 260 260 261 262 263 265 267 267 267 269 271 271 271 271 272 273 275 271 269 269 270 270 274 273 272 271 270 270 271 273 275 277 278 278 280 282 283 284 284 284 284 284 285 285 284 284 285 284 284 284 284 284 284 284 284 284 284 283 283 282 282 282 282 282 281 281 282 284 286 286
264 263 264 263 263 263 263 263 263 263 262 263 263 262 261 259 259 259 259 260 262 263 264 265 266 267 268 272 274 274 274 270 267 266 266 266 266 266 267 269 270 268 267 267 267 268 269 271 272 273 275 277 281 282 282 284 284 283 282 283 283 283 283 283 283 282 282 282 283 283 284 282 282 282 282 281 281 282 282 282 281 281 281 281 282 283 284
263 263 262 262 262 262 262 261 261 261 262 261 260 260 260 259 258 258 259 260 261 261 263 264 264 264 266 266 267 266 266 266 266 265 265 266 265 265 265 266 267 266 265 265 265 266 267 269 270 270 272 275 279 282 283 283 282 282 282 282 282 282 282 282 281 281 281 280 281 282 280 279 279 279 279 279 280 280 280 280 280 279 280 280 281 281 280
261 262 261 261 261 262 261 260 261 261 261 260 260 259 259 259 258 258 258 260 261 261 262 262 263 263 263 264 265 265 265 265 265 265 265 265 265 265 265 265 263 262 262 263 264 265 266 267 268 269 271 273 276 279 281 281 281 281 281 281 281 282 282 281 281 279 279 278 279 278 277 277 277 277 277 277 277 277 278 278 278 279 279 279 280 280 280
260 260 260 261 261 260 260 261 260 260 259 259 258 258 258 257 256 257 258 259 260 261 260 261 261 262 262 263 263 263 263 263 263 263 263 263 264 265 265 264 264 264 263 263 263 264 265 266 266 268 270 271 274 277 278 278 279 278 278 278 278 278 279 280 278 278 277 276 276 276 275 275 275 275 275 276 276 276 276 277 277 278 278 278 278 279 280
258 257 259 260 259 259 259 260 259 259 259 258 258 258 258 258 258 258 258 259 260 260 260 260 260 261 262 262 261 261 261 261 261 261 261 261 262 263 265 265 264 263 262 262 263 263 264 264 266 267 268 270 272 273 275 276 276 276 276 276 276 276 277 277 277 276 275 275 274 274 274 274 274 274 274 274 275 275 276 276 276 276 276 276 276 277 279
259 258 258 259 259 258 258 259 260 259 259 259 259 258 258 258 258 258 258 259 259 259 259 260 260 260 260 261 261 260 260 259 258 259 259 260 261 262 263 264 264 263 262 262 262 263 263 264 265 266 267 269 270 271 272 273 273 273 273 273 273 273 273 273 273 273 273 272 272 272 272 272 272 273 273 273 274 274 274 274 273 273 272 273 274 276 280
261 260 261 261 261 261 261 261 260 259 258 257 257 257 258 257 257 257 258 258 257 258 259 260 260 259 259 259 259 259 259 258 258 258 259 259 260 260 261 261 262 262 262 261 261 262 263 264 265 266 266 267 268 269 270 271 272 272 271 271 271 270 270 270 270 270 270 270 270 270 270 270 270 271 272 272 272 272 271 271 271 271 272 273 275 277 278
260 259 260 260 261 261 261 261 261 259 258 257 257 257 257 257 257 257 256 257 258 258 258 259 259 259 258 257 257 257 257 259 259 259 259 259 259 260 259 259 259 259 259 259 261 262 263 263 266 267 265 266 266 267 269 270 270 270 270 270 270 270 270 269 269 269 269 269 268 268 268 269 269 269 269 269 269 269 269 269 270 270 271 271 271 271 271
259 259 259 260 260 260 261 261 260 259 258 257 257 256 256 256 256 257 257 257 257 257 258 258 258 257 257 258 258 257 257 257 258 258 258 259 259 258 258 257 257 257 258 257 259 261 262 262 265 266 264 264 265 265 267 269 268 269 269 269 269 268 267 267 268 268 268 269 268 268 268 268 268 268 268 268 268 268 268 268 267 267 267 267 267 267 267
259 259 259 259 260 260 260 261 261 259 258 257 257 257 256 256 256 256 256 256 256 257 257 257 257 257 257 258 258 257 257 256 256 257 258 258 258 257 256 256 256 256 256 256 259 260 261 262 264 263 262 263 264 264 266 268 268 267 267 266 266 267 266 266 266 266 266 266 266 266 265 265 265 264 265 266 266 266 266 266 266 265 265 265 265 265 265
258 259 259 259 259 259 260 261 260 259 258 256 256 256 256 256 256 256 255 255 256 256 256 256 257 256 256 256 256 256 257 256 256 256 257 257 257 256 255 256 256 257 257 259 259 259 260 261 261 260 261 261 262 263 264 267 267 265 265 265 265 265 265 265 265 265 265 264 264 264 264 264 264 263 263 263 264 264 264 264 264 264 264 264 264 264 264
257 258 257 258 257 258 259 259 259 258 258 257 256 255 255 255 255 255 255 255 255 256 255 256 256 255 254 254 254 255 256 257 256 255 255 255 256 256 255 255 256 257 258 260 258 259 260 262 261 259 260 260 261 261 262 263 264 263 263 263 263 263 263 264 264 264 263 263 263 264 263 263 263 263 263 263 263 263 263 263 263 263 263 263 263 264 264
257 257 257 257 257 258 258 258 258 258 258 257 256 256 256 255 255 254 254 254 255 255 255 255 254 254 254 254 254 254 255 255 256 256 255 254 254 254 253 252 255 257 257 257 258 258 258 260 259 258 259 259 260 261 260 262 261 260 260 260 261 261 261 261 261 261 261 261 262 261 261 262 261 261 261 261 261 261 261 261 261 261 261 261 261 262 262
257 257 257 256 256 257 257 258 258 258 257 257 256 256 255 255 254 253 254 254 254 254 254 253 256 254 254 254 254 254 253 254 254 255 255 253 252 252 252 253 255 256 259 258 258 258 257 257 258 259 258 258 259 261 261 259 259 259 259 259 259 259 259 259 259 259 259 260 260 260 260 260 259 259 259 259 259 259 259 259 259 259 259 259 259 259 260
256 255 255 255 255 256 257 257 257 257 256 256 256 255 255 255 254 254 254 253 253 253 253 253 253 253 253 253 253 252 252 252 253 253 254 255 254 253 253 253 254 255 259 256 256 255 256 256 256 257 259 258 258 260 259 257 257 257 258 258 258 257 257 257 257 257 257 257 257 257 257 257 257 257 257 257 257 257 257 257 257 257 257 257 258 258 258
254 254 254 255 255 256 256 257 257 257 256 255 256 255 255 255 254 253 253 252 252 253 252 252 252 252 252 252 252 252 252 251 251 252 252 252 253 254 254 254 254 255 258 255 255 254 255 255 255 257 259 259 259 259 256 256 256 256 256 256 256 256 256 255 255 255 255 256 255 255 255 256 256 256 256 255 255 255 256 256 256 256 256 256 256 256 256
254 256 257 256 255 256 256 256 256 255 256 256 256 255 254 254 254 253 253 252 252 252 252 252 251 251 251 251 251 251 252 252 251 251 250 250 250 250 253 255 254 254 254 256 253 253 254 254 255 258 257 258 258 257 255 255 255 255 254 254 254 254 255 255 255 254 254 254 254 254 255 254 254 255 255 255 255 254 254 254 254 254 254 254 254 254 254
256 257 257 257 255 255 256 256 256 256 256 256 255 254 254 254 253 253 253 252 251 251 251 251 251 251 251 250 251 251 252 252 252 251 251 250 249 250 253 254 253 254 254 255 253 252 253 256 256 256 256 256 256 254 253 254 254 253 253 253 253 253 253 253 253 253 253 253 253 253 253 253 253 253 253 253 253 253 254 254 253 253 253 253 253 253 253
256 256 256 255 255 255 256 256 256 255 255 254 253 253 253 253 253 253 253 253 252 251 251 251 251 251 251 251 250 249 249 250 251 251 250 250 251 251 252 253 254 254 253 251 251 252 252 252 253 255 255 255 255 252 252 252 252 252 252 252 252 252 252 252 252 252 252 252 252 253 253 252 252 252 252 252 252 252 252 252 251 251 251 252 252 252 252
256 255 255 255 254 255 255 255 254 253 253 252 253 253 253 253 252 252 252 252 252 252 251 250 250 250 250 250 250 250 249 248 247 249 250 249 250 250 249 250 251 253 252 251 251 252 254 254 254 253 254 253 251 251 251 251 251 251 251 251 251 250 250 250 250 250 250 251 250 250 250 250 250 250 250 250 250 250 250 250 250 250 250 250 250 250 250
255 254 254 255 254 254 254 254 253 253 252 253 253 252 253 252 252 251 251 251 251 251 251 250 249 249 249 250 250 249 249 250 248 247 249 249 248 248 248 249 251 251 250 249 248 248 251 252 252 252 252 251 249 249 249 250 250 250 249 249 249 249 249 249 249 248 248 249 249 249 248 248 248 248 248 248 248 248 249 248 249 248 248 248 248 248 248
254 253 253 253 253 252 252 252 252 252 252 252 251 252 252 252 250 250 250 249 249 250 250 249 249 248 248 248 248 249 248 248 248 248 248 248 247 247 248 247 248 249 250 247 247 247 249 250 251 251 248 247 247 248 248 248 248 249 248 249 249 248 249 249 250 250 248 248 247 248 247 247 247 248 248 247 248 248 247 247 247 249 251 249 246 245 245
253 253 253 254 254 253 253 252 252 252 252 252 251 251 251 250 250 250 249 249 248 248 247 247 248 247 247 247 247 247 248 247 248 249 247 247 247 248 248 247 246 247 246 246 246 246 246 246 246 247 247 246 246 246 247 246 246 247 248 247 247 247 247 247 246 245 246 247 246 246 246 245 245 245 245 245 246 245 245 246 245 244 243 243 243 242 242
255 254 253 253 253 253 253 252 252 252 252 252 251 250 250 249 249 249 249 250 248 247 247 246 246 247 246 245 246 246 247 247 247 247 247 247 246 245 246 247 245 245 244 244 244 244 245 245 246 247 248 245 245 245 246 247 245 246 246 247 247 245 246 246 246 244 244 244 244 243 244 244 243 242 242 243 243 243 243 242 242 241 242 241 241 242 240
Wind_Speed
21 22 21 16 17 17 21 23 22 22 18 19 21 21 23 21 16 20 21 22 23 23 23 25 18 14 9 13 13 13 16 17 20 23 23 20 17 19 21 21 22 24 24 22 23 20 18 20 16 13 10 9 9 9 9 10 11 13 13 14 16 16 16 17 18 17 15 14 14 13 12 11 11 12 13 13 12 12 13 13 12 13 13 12 13 12 11
15 20 18 18 21 21 20 20 21 20 22 23 25 26 25 23 21 19 22 23 27 23 22 12 15 13 9 10 12 15 16 20 21 23 20 16 17 20 20 19 19 21 22 22 22 20 18 18 19 19 15 12 11 11 12 12 12 14 11 14 16 16 17 18 16 15 15 13 13 13 12 13 13 13 13 12 12 12 12 12 12 12 12 12 13 13 13
16 19 17 15 17 16 21 21 22 24 22 24 24 21 17 16 18 21 24 25 22 14 12 15 15 8 9 14 17 16 17 19 22 21 18 15 19 21 19 19 20 21 21 21 21 21 19 19 19 19 19 15 13 11 10 11 13 11 9 12 13 15 17 16 14 14 13 14 13 14 14 13 12 13 13 12 12 13 12 12 13 12 13 14 13 13 14
15 14 16 17 17 19 22 22 23 21 20 18 13 13 17 20 22 24 23 19 16 13 16 16 13 10 12 16 19 19 17 19 20 17 16 16 19 21 21 19 19 21 22 21 21 21 20 19 20 19 19 18 16 14 12 14 14 11 11 12 14 15 15 12 13 14 14 13 14 15 13 14 14 13 13 13 14 14 14 14 12 12 13 14 13 12 12
13 16 16 19 20 18 15 14 15 16 13 18 22 24 26 21 17 17 16 15 15 17 17 18 17 14 14 16 17 20 23 19 18 15 12 14 17 20 20 20 20 21 20 19 19 20 17 17 19 21 20 18 18 17 16 15 13 11 14 15 15 15 12 11 13 13 12 14 15 15 16 15 14 13 14 14 14 14 16 14 13 15 14 13 13 13 13
13 14 16 16 13 13 13 7 13 17 22 27 27 23 22 22 16 15 15 17 18 19 18 14 16 18 18 18 19 16 19 22 17 13 12 15 18 19 20 18 19 19 18 18 17 16 15 17 18 18 17 17 18 18 18 16 14 15 15 15 14 16 13 13 12 13 14 15 15 16 15 15 14 15 15 16 15 13 12 11 13 13 13 15 13 14 14
12 11 14 12 11 13 9 20 25 21 23 25 23 21 21 23 20 20 19 19 20 21 16 12 13 15 20 22 20 20 17 18 15 13 14 15 17 21 20 21 20 19 19 19 18 16 16 18 19 17 17 18 22 22 17 15 13 14 15 16 16 15 15 14 12 12 14 15 15 14 15 15 15 16 17 14 14 12 12 14 15 16 16 16 15 14 13
9 7 6 12 14 10 19 30 28 19 12 14 19 20 21 24 19 16 16 18 22 19 15 14 13 16 21 22 16 13 15 11 12 14 14 16 18 21 20 21 21 20 19 18 17 16 15 17 18 15 15 17 20 24 18 15 15 17 17 17 18 17 16 16 16 16 16 16 16 15 15 15 16 17 17 17 16 13 12 11 9 8 7 9 12 13 13
14 8 11 15 17 17 18 22 11 10 15 16 17 19 22 28 16 14 18 23 23 14 10 16 21 19 17 21 18 6 11 12 11 14 17 18 19 19 20 19 21 19 17 17 16 14 14 16 17 14 14 16 19 22 18 12 12 14 14 16 17 18 20 19 18 17 16 17 17 16 16 17 17 18 17 16 14 12 14 13 13 13 14 14 13 14 15
6 14 13 9 9 11 18 22 20 12 15 18 17 13 15 20 14 13 18 19 12 12 22 24 25 22 17 21 22 9 11 13 16 16 18 18 19 18 18 20 19 19 18 16 15 13 16 16 14 12 13 16 18 20 18 11 11 14 16 19 19 18 19 19 19 18 16 17 18 18 17 19 19 17 16 14 16 16 18 16 15 14 13 12 12 13 15
6 7 8 11 11 13 20 27 20 19 19 23 10 10 17 17 13 11 10 13 19 24 23 23 20 16 17 23 22 15 10 15 17 21 20 19 20 20 19 20 22 22 20 19 17 14 13 16 13 10 13 16 16 18 17 11 11 13 16 19 18 20 20 17 15 15 16 17 18 20 21 20 18 18 18 17 14 13 13 14 16 14 13 13 12 11 13
5 8 10 13 2 10 20 20 21 20 22 14 12 18 18 16 16 16 16 23 24 21 18 19 16 17 18 19 26 18 17 16 19 19 21 22 23 23 22 20 21 22 21 20 18 15 15 14 10 9 12 14 15 16 16 12 11 15 17 17 18 18 16 15 14 12 13 18 19 20 21 18 16 16 14 12 13 14 13 12 12 12 12 12 15 13 12
13 14 13 11 10 15 21 20 20 18 12 13 14 18 17 15 20 24 24 25 23 19 20 15 16 19 18 22 28 27 21 20 20 18 21 22 21 24 23 24 23 22 22 20 18 16 14 11 7 7 10 12 15 15 15 14 12 14 14 14 14 14 14 14 14 16 16 17 20 20 19 20 18 14 13 14 14 14 14 11 11 11 13 12 13 12 11
12 9 12 16 13 19 22 12 12 6 14 15 15 14 18 21 27 22 23 24 25 21 20 19 19 20 24 24 28 26 22 21 21 18 23 25 24 20 20 23 24 23 23 21 19 18 16 13 8 9 11 13 15 15 14 15 14 13 13 12 9 9 10 12 14 16 17 16 17 17 17 16 17 18 16 15 15 16 13 13 15 14 14 13 13 11 10
8 9 11 14 17 9 5 10 18 9 5 14 15 18 21 21 23 24 21 21 22 20 21 21 21 24 25 27 28 31 26 23 26 25 24 24 25 24 23 23 21 21 23 23 21 20 16 12 9 9 11 15 16 15 15 16 13 12 13 12 10 9 11 12 13 15 16 18 15 12 14 18 21 18 16 15 14 14 15 14 15 15 14 13 12 12 10
12 10 9 8 15 19 15 12 14 17 17 19 20 19 21 22 19 20 17 21 21 20 19 20 23 24 30 30 29 31 30 26 19 22 22 24 26 22 20 19 22 20 24 23 21 18 16 11 10 10 11 14 16 17 19 16 12 12 12 13 11 11 13 13 14 14 15 16 16 15 19 18 17 18 17 17 16 15 15 15 14 15 12 12 12 12 13
8 11 13 17 19 21 18 14 16 21 23 22 20 23 22 23 21 17 19 20 21 20 21 27 29 29 32 30 31 31 31 33 22 27 26 25 24 24 22 20 20 20 21 22 20 19 15 12 12 11 9 12 17 19 18 14 13 12 12 13 12 13 13 13 14 13 14 14 16 16 17 19 19 17 18 17 16 14 15 14 15 16 14 13 14 14 13
20 19 23 25 22 22 22 17 17 21 24 25 23 20 22 18 19 17 18 20 25 27 26 22 26 24 30 34 33 28 29 25 21 18 20 22 21 23 21 22 18 19 18 19 20 19 16 14 14 10 10 10 15 19 16 14 13 12 12 13 14 16 15 15 16 16 16 15 16 14 14 15 20 20 20 19 18 16 15 15 15 16 15 15 14 14 14
13 15 19 18 22 20 20 22 23 22 20 20 17 19 19 19 24 26 27 25 26 26 27 30 30 31 31 31 34 36 32 31 28 24 26 26 22 23 24 22 19 18 15 18 18 16 17 15 12 11 12 12 13 14 16 15 14 12 12 14 15 15 16 15 15 17 19 16 15 15 15 12 12 16 17 18 17 17 17 17 16 16 15 16 15 14 14
14 20 21 24 27 27 18 16 17 19 20 25 28 24 21 23 21 21 25 29 31 29 31 29 26 30 32 31 28 28 30 29 24 19 22 25 25 24 23 17 19 17 18 18 16 16 17 15 12 13 13 14 14 14 15 15 13 10 11 12 14 13 15 14 14 16 17 20 20 16 17 16 13 13 16 18 18 19 20 19 18 16 16 16 17 16 15
18 21 24 25 26 30 18 11 15 18 20 25 32 31 27 24 23 22 23 21 20 23 28 30 29 30 32 29 26 27 30 28 25 25 25 23 23 23 19 18 17 16 16 14 14 16 16 13 13 13 15 16 15 14 15 13 10 10 11 12 13 13 13 13 14 15 16 17 18 17 16 16 16 16 19 18 18 18 19 18 19 20 18 17 17 16 16
15 17 21 21 21 25 30 35 29 24 23 21 22 21 23 24 23 25 30 34 31 27 25 24 25 28 31 34 27 28 30 28 29 27 26 27 26 23 19 17 16 14 13 14 16 15 13 12 13 14 16 17 15 12 11 10 9 10 10 10 11 11 11 12 12 13 13 14 15 15 16 16 14 10 10 14 17 16 15 19 27 29 26 21 21 18 16
17 24 24 17 15 19 25 31 34 29 23 18 21 23 25 29 30 27 29 32 37 39 36 28 22 25 28 35 31 29 29 27 26 24 26 26 25 22 19 17 16 15 15 13 12 13 13 12 13 14 15 16 14 11 9 8 9 10 10 9 9 10 11 11 12 13 12 12 13 14 14 14 13 13 11 8 9 10 13 22 25 26 29 32 30 26 22
19 20 19 19 16 15 27 35 35 28 19 17 28 26 24 27 29 30 32 31 30 33 37 38 30 25 28 30 27 30 31 29 28 24 22 23 24 23 17 15 14 13 13 11 12 13 12 12 14 14 14 14 13 12 9 8 8 9 9 9 9 10 11 11 13 14 13 14 13 13 12 13 13 13 12 11 8 2 2 9 13 16 17 16 19 25 27
12 17 15 14 14 20 22 23 23 16 16 20 25 29 28 32 34 33 33 33 31 30 30 33 36 30 26 27 25 27 27 26 24 21 22 23 24 18 14 13 12 10 10 10 10 11 11 12 13 13 14 14 12 11 8 6 7 9 9 10 10 10 10 11 11 13 12 12 13 13 12 12 12 12 12 12 12 8 3 6 12 14 14 13 15 18 18
11 14 16 16 16 15 15 19 22 15 22 24 25 25 27 27 30 32 31 30 30 31 31 29 31 35 29 25 23 22 21 22 23 20 18 19 16 11 9 9 10 9 9 9 9 10 12 13 12 11 11 11 10 9 7 5 6 8 9 10 9 8 9 10 11 10 10 10 11 12 12 13 13 14 14 15 14 12 10 8 7 5 8 12 15 18 18
6 9 17 25 22 6 6 4 20 32 32 29 26 27 29 31 31 26 26 26 26 26 26 27 25 26 25 22 21 19 18 19 16 15 16 14 9 9 9 9 10 10 10 10 10 11 13 12 11 10 10 11 11 10 6 4 5 6 7 7 7 8 12 11 9 10 9 9 9 9 9 10 11 11 10 11 12 13 13 14 14 15 12 11 15 20 18
5 7 5 7 17 23 25 26 23 24 23 24 29 33 30 26 25 28 29 29 29 31 26 22 25 30 28 21 15 14 11 13 12 8 9 10 10 10 10 10 10 9 9 10 10 12 12 11 11 10 10 12 11 8 4 2 3 4 5 5 6 6 7 10 8 7 7 8 8 9 10 10 10 10 10 11 12 12 10 10 11 10 8 8 9 14 20
6 9 10 10 17 21 23 24 24 22 22 21 20 19 26 30 29 25 25 26 28 28 27 31 30 26 25 24 16 11 11 12 14 14 12 11 12 12 11 10 8 9 10 11 12 12 12 12 12 12 12 13 12 9 3 2 3 4 5 6 6 6 6 6 6 6 6 6 6 6 5 5 6 7 8 9 9 9 10 11 11 9 9 8 9 9 9
12 10 13 16 17 18 21 22 23 23 23 22 25 24 23 25 26 26 26 28 27 27 27 27 25 26 26 22 21 18 16 15 14 12 13 13 13 14 13 10 5 11 14 16 16 14 13 12 13 12 13 13 12 10 8 7 7 8 8 8 7 7 7 7 7 8 7 6 7 8 7 6 6 6 7 7 9 10 10 10 10 11 12 11 10 13 15
16 15 14 16 17 17 19 22 19 18 20 22 24 25 25 22 20 21 25 25 24 24 28 25 26 26 24 21 18 17 16 15 15 14 13 13 13 14 16 16 16 14 12 11 12 13 13 13 12 12 13 12 11 11 10 9 9 10 10 9 10 13 16 14 10 8 8 8 7 8 7 7 7 7 7 7 7 7 8 8 9 10 10 10 10 11 11
16 18 17 10 9 16 16 12 16 18 20 22 26 27 24 24 26 26 26 24 25 26 26 27 27 26 23 21 19 17 15 15 14 15 14 15 15 14 14 14 14 13 12 12 13 13 14 13 15 14 12 12 11 13 11 11 11 11 10 9 10 9 11 13 10 10 9 9 8 8 7 8 7 7 7 7 7 7 8 9 9 9 9 10 9 8 9
13 15 14 16 17 19 20 19 20 22 22 22 19 19 19 19 19 20 20 21 24 24 25 25 23 22 21 20 19 18 16 12 14 18 18 17 16 15 14 11 13 14 15 13 13 12 13 14 12 13 13 12 13 13 14 12 12 11 11 11 11 11 10 11 11 11 10 10 9 8 8 7 7 7 7 7 6 6 7 8 8 8 7 6 6 6 6
9 8 12 14 14 13 16 19 19 18 18 17 16 16 16 17 18 19 20 23 22 24 22 23 23 22 20 19 19 21 20 20 20 18 19 17 15 16 17 16 14 16 16 15 17 15 13 12 13 12 12 16 16 14 14 14 12 12 12 12 11 11 11 9 11 11 10 10 9 11 9 9 8 7 7 7 7 7 8 8 8 8 9 8 7 6 9
9 11 12 13 13 12 12 12 14 14 15 16 15 14 15 15 17 18 23 22 23 22 20 19 21 20 18 20 21 21 23 22 18 18 17 17 17 17 14 15 17 20 24 22 18 16 15 13 15 14 11 15 18 16 14 14 13 12 13 14 13 9 9 12 12 10 11 11 13 12 10 10 8 7 9 10 9 9 9 9 9 9 9 9 8 7 9
10 10 10 10 11 12 11 10 10 12 12 10 11 13 15 16 19 19 21 21 20 20 21 19 19 22 23 24 22 22 21 20 21 21 21 21 17 13 14 21 21 22 19 21 20 18 18 15 25 24 14 12 15 14 14 13 14 13 13 13 13 13 13 12 13 13 14 14 12 16 17 14 15 15 12 11 10 10 10 10 9 8 8 8 7 8 8
8 9 9 9 9 10 9 7 8 10 10 10 11 13 16 18 17 16 17 17 19 19 20 20 22 24 19 18 19 20 21 18 16 18 15 14 17 15 18 22 26 21 17 18 20 19 18 18 25 27 18 13 14 14 19 21 12 12 13 13 13 13 12 12 11 11 11 11 10 11 12 10 10 10 11 10 10 10 10 10 10 10 9 9 9 9 9
8 8 9 9 9 9 8 6 6 9 11 10 11 12 14 15 15 14 14 15 16 18 17 17 17 16 17 16 17 20 21 21 18 17 21 16 16 18 25 22 19 18 19 15 16 16 16 22 28 19 16 15 16 17 20 26 20 15 14 13 13 12 13 13 12 11 11 10 11 12 12 11 10 8 9 10 10 10 10 10 10 9 9 9 9 9 9
7 7 6 8 7 8 8 6 7 8 11 13 12 12 13 14 14 14 14 15 16 18 16 16 17 16 19 19 16 18 21 21 22 19 21 21 17 20 18 18 17 18 15 15 17 16 19 22 18 15 14 15 15 17 19 21 22 15 14 13 14 13 13 13 13 12 11 10 11 12 12 12 13 10 8 8 9 8 9 9 9 10 9 7 7 7 8
6 7 8 8 7 8 8 7 7 9 9 10 12 13 12 13 14 14 14 16 18 18 17 15 17 16 18 19 18 16 18 19 19 21 20 17 16 16 11 18 23 21 23 24 18 16 23 28 20 14 14 15 16 13 15 21 17 12 13 12 11 12 12 11 12 13 12 13 14 15 12 10 9 9 9 9 9 9 8 8 8 7 8 8 8 7 8
6 7 8 7 8 7 8 8 8 8 9 11 12 12 12 12 11 12 15 14 14 15 16 15 15 15 16 17 16 15 15 15 17 20 19 16 19 16 16 17 19 18 21 19 17 17 21 20 18 16 15 15 15 19 14 19 15 12 12 12 11 11 11 11 11 11 10 9 10 9 9 8 9 9 9 9 9 8 8 8 8 8 7 8 8 8 8
5 6 7 8 7 8 9 8 7 7 8 9 11 11 11 12 12 11 11 11 12 13 13 14 17 15 13 13 13 14 15 17 16 15 20 20 18 14 15 14 16 17 26 22 20 18 16 16 17 17 17 15 14 25 21 14 13 11 12 12 12 12 12 12 12 11 11 11 13 13 11 9 9 9 9 9 9 9 8 8 8 9 8 8 8 8 8
4 5 6 6 6 8 8 8 8 8 7 8 9 10 10 10 11 10 10 11 12 12 13 12 14 15 15 15 15 15 15 15 16 14 13 14 17 17 13 10 12 16 27 17 17 14 15 14 15 15 24 20 17 24 21 13 12 12 12 12 13 13 12 12 11 10 10 11 10 10 10 9 9 9 9 9 8 8 8 8 8 8 8 8 8 9 8
4 3 4 4 6 7 7 7 8 8 7 7 8 8 9 9 11 11 11 11 12 12 12 13 14 14 14 13 12 12 13 13 13 12 11 11 12 15 17 14 13 16 26 16 14 13 14 15 15 21 27 28 28 24 14 12 12 12 12 12 11 12 12 11 11 11 11 11 10 9 9 10 9 9 9 8 8 8 9 8 8 7 7 7 7 7 7
3 2 5 5 6 6 6 7 8 9 8 7 6 9 10 11 10 11 11 12 12 12 12 12 12 13 12 12 11 11 10 10 10 10 12 12 12 12 15 16 15 13 17 20 12 13 12 14 20 27 23 25 23 21 12 11 11 11 10 10 10 10 11 11 10 10 9 9 9 9 8 9 8 8 8 9 9 8 8 9 9 8 8 7 7 7 7
1 3 5 6 6 6 6 7 6 7 7 6 6 8 10 10 10 10 11 12 11 10 10 10 11 12 12 12 10 9 9 8 10 11 10 9 10 8 11 14 12 14 19 19 12 13 12 23 26 25 24 24 21 14 11 12 10 10 11 10 10 10 9 9 9 9 9 10 9 9 9 9 9 9 9 8 8 8 8 9 8 8 8 7 7 7 7
2 3 3 4 5 6 6 6 6 6 6 6 7 7 9 10 9 8 9 10 10 10 10 10 10 10 11 11 10 10 10 9 8 9 10 9 9 9 11 15 16 18 15 11 11 12 13 15 18 23 23 22 19 11 11 11 11 11 10 10 10 9 9 9 9 9 9 9 9 9 9 9 8 8 8 8 8 8 7 7 8 7 7 7 7 7 7
3 3 2 3 5 6 6 6 6 6 7 7 6 6 7 7 8 8 8 8 8 8 8 8 8 9 9 10 9 8 8 7 7 8 9 10 8 8 8 8 11 16 15 11 14 14 23 23 22 22 22 18 11 10 11 10 10 10 10 9 9 9 9 9 9 9 9 9 9 9 9 9 9 8 8 8 8 7 7 7 7 6 6 6 6 6 6
3 3 3 3 4 6 6 5 5 6 5 6 7 6 7 7 6 6 7 9 9 7 7 7 8 7 8 9 9 8 8 8 7 5 8 8 8 8 9 10 14 16 11 9 10 9 17 21 20 21 19 14 9 9 9 9 9 9 9 9 9 9 9 8 8 7 8 8 8 8 7 7 7 7 7 7 7 6 6 7 6 6 6 5 6 6 5
3 2 2 3 4 5 5 4 5 4 5 5 5 5 6 5 5 6 6 6 7 6 6 6 6 7 7 7 6 7 7 7 7 7 7 7 8 8 9 9 9 13 13 9 10 9 13 17 16 16 13 9 9 9 8 8 8 8 8 8 8 7 8 9 8 10 8 8 8 7 7 7 7 7 7 7 7 7 6 6 6 7 10 7 5 5 5
3 3 3 3 4 4 5 5 4 4 4 4 5 5 5 5 4 5 5 6 6 6 6 6 5 6 7 7 6 7 8 8 8 9 8 7 7 8 10 9 9 9 10 10 9 9 9 9 9 10 10 9 8 9 9 9 8 9 9 8 9 7 8 8 7 7 7 7 6 6 6 6 5 5 5 5 5 5 5 4 5 4 4 4 4 4 4
4 4 3 3 2 2 3 3 4 3 3 3 3 4 4 4 4 4 4 6 5 5 6 7 7 6 6 7 7 7 7 8 7 7 7 8 8 7 8 9 7 8 8 8 8 8 8 9 9 11 11 9 8 8 9 11 9 8 8 8 7 8 8 7 6 6 6 7 6 6 6 5 5 6 5 5 4 4 4 4 3 4 3 4 4 4 4
Wind_Direction
278 279 285 296 293 285 290 290 289 292 289 281 279 278 275 279 277 283 299 305 303 301 300 299 318 342 333 328 322 323 319 327 333 327 322 323 327 336 338 340 338 336 333 329 327 327 330 332 316 283 271 251 244 235 231 224 222 225 219 214 209 201 198 199 199 195 191 190 190 188 186 180 175 175 175 173 170 165 167 168 167 167 165 164 162 168 169
277 282 287 288 284 286 285 286 291 289 289 286 283 282 281 282 285 295 299 300 297 302 299 325 317 309 314 309 312 316 329 331 329 324 323 323 323 328 330 332 330 326 324 324 322 321 327 331 331 320 291 268 251 237 231 224 223 223 210 218 217 207 202 201 197 190 189 186 183 179 177 177 177 175 172 169 164 163 168 166 164 163 162 165 166 167 167
280 281 283 276 279 287 290 292 292 292 290 283 279 282 290 301 297 297 302 304 302 300 306 309 315 323 320 320 325 320 319 327 326 323 319 312 316 320 322 324 324 321 320 321 321 322 326 330 329 321 314 294 267 249 233 225 223 218 211 224 224 219 209 200 191 187 184 184 176 177 178 173 172 170 167 165 163 163 163 162 162 165 163 165 170 169 169
287 287 294 296 295 293 292 295 293 291 288 286 295 305 312 303 300 302 303 301 296 304 308 311 313 319 319 314 316 317 321 323 322 313 306 304 312 316 317 318 319 320 319 320 322 322 325 327 325 320 314 310 292 263 234 225 221 198 200 214 225 231 222 197 189 185 185 177 177 177 171 175 171 171 168 165 165 165 164 164 164 162 168 172 169 166 167
273 289 298 296 299 293 284 281 286 280 290 297 306 305 299 294 299 296 294 290 301 306 308 309 314 311 304 308 316 321 319 317 310 296 283 292 306 310 312 312 315 317 316 316 318 318 319 322 320 314 310 305 296 277 252 232 219 195 204 208 212 225 230 215 198 186 177 178 180 175 177 171 169 166 167 167 167 167 172 171 162 167 171 167 170 170 170
286 292 291 291 289 276 280 301 283 301 307 302 301 296 294 293 290 278 285 291 295 295 298 304 304 306 307 312 310 310 310 310 302 280 278 296 305 306 306 306 307 311 313 313 312 309 308 311 309 306 303 302 301 287 260 239 214 205 200 208 207 214 214 218 209 188 182 180 181 180 173 169 166 167 168 174 174 173 166 160 165 166 167 171 171 174 177
286 295 288 280 255 275 334 302 291 293 294 291 288 290 293 287 282 285 291 292 292 290 290 287 288 291 300 305 306 305 302 292 284 275 284 297 305 305 304 305 308 310 313 309 306 307 311 314 313 313 313 321 319 307 275 239 210 206 202 202 204 208 210 212 205 199 187 183 183 176 174 171 167 170 173 170 169 168 166 170 172 174 174 176 177 176 176
284 298 298 289 277 305 304 288 287 291 283 281 295 291 291 285 287 295 292 289 288 290 292 288 283 299 303 298 289 287 285 264 266 280 290 301 304 305 304 304 306 309 310 307 301 300 306 311 312 311 317 323 320 311 287 230 208 203 202 202 203 201 205 206 202 198 191 185 180 176 172 171 172 173 174 173 170 168 165 169 171 162 167 167 169 176 177
293 287 280 275 297 294 278 282 288 324 311 309 307 304 300 293 311 304 294 293 290 294 283 295 305 307 304 297 291 273 270 273 265 277 290 297 300 298 299 300 301 302 300 298 294 294 300 307 309 312 322 324 321 315 296 232 209 206 204 210 210 203 204 201 199 195 193 185 177 174 172 173 177 176 174 173 169 165 165 169 170 175 175 179 179 176 174
282 296 297 293 287 286 287 276 291 291 283 280 281 285 293 287 290 294 293 289 293 296 307 308 305 309 308 299 294 299 290 289 289 289 291 294 294 295 296 298 298 300 300 294 289 289 296 300 303 310 321 321 321 317 302 250 218 211 205 209 207 205 208 205 197 192 188 182 177 174 175 180 180 178 176 174 174 170 170 169 174 178 174 176 178 178 177
290 280 278 281 286 274 277 288 291 295 300 297 323 304 286 286 302 296 277 291 301 302 300 299 304 304 298 291 286 296 288 293 293 293 292 292 294 295 297 299 302 303 302 299 293 290 288 296 301 311 316 318 320 318 312 269 231 222 217 216 209 206 208 202 198 191 182 180 181 177 179 181 178 175 176 176 172 171 175 175 176 170 171 172 172 177 182
250 278 278 279 232 278 273 280 292 297 292 315 325 300 290 311 309 301 299 295 294 296 293 293 290 288 286 287 290 293 288 285 285 285 287 291 294 293 295 296 298 300 301 300 292 286 288 289 290 304 312 314 315 314 312 295 244 231 226 222 217 213 206 195 187 182 189 186 182 181 180 174 175 176 169 161 168 174 172 170 168 170 171 172 171 177 178
283 284 279 278 274 265 271 284 284 284 309 315 296 282 292 304 300 301 299 295 293 293 292 288 284 279 269 271 279 287 288 286 280 274 278 282 285 288 293 297 302 299 299 293 285 281 284 280 271 289 303 309 309 310 307 303 274 249 241 235 230 222 207 195 185 183 184 192 188 185 178 170 168 163 168 173 168 169 169 167 165 167 170 170 171 172 175
288 274 262 268 267 269 279 274 281 322 324 296 287 286 293 293 292 290 291 290 289 289 282 282 276 276 280 277 279 282 281 277 276 277 282 283 282 279 283 289 294 294 293 290 284 284 285 282 278 292 300 304 304 303 304 297 286 268 254 243 237 236 220 204 189 184 186 188 191 182 174 164 162 170 174 168 170 170 166 166 168 170 169 169 171 170 172
266 264 274 290 292 271 268 316 308 300 245 272 279 289 283 281 283 287 287 282 284 286 284 279 279 281 283 283 283 284 281 280 282 284 284 285 286 288 290 290 285 287 290 288 284 282 286 283 285 291 299 304 302 299 294 288 285 273 260 246 221 208 206 204 194 189 186 183 181 177 175 174 169 166 163 165 169 169 167 166 166 168 173 170 167 167 166
288 278 259 243 253 286 305 320 295 295 283 285 288 289 289 285 285 290 289 286 286 285 283 289 292 288 288 288 287 287 286 281 276 277 279 281 283 280 275 273 281 285 285 282 278 279 282 276 279 286 295 299 296 293 287 287 282 267 255 241 217 199 197 197 193 189 185 181 178 181 178 172 169 163 166 167 166 172 171 167 167 169 173 173 170 167 169
246 255 250 256 269 279 285 287 277 278 281 283 282 281 281 288 288 287 288 291 296 298 300 299 297 297 292 289 288 286 286 289 283 283 281 279 281 282 282 282 282 281 278 276 275 278 274 268 272 280 284 285 287 284 283 284 277 268 250 236 215 204 195 189 186 187 180 179 181 184 183 172 167 170 166 164 167 174 171 172 172 172 175 175 178 176 173
256 258 263 270 276 277 280 277 277 279 282 283 282 279 283 286 290 301 303 307 305 303 303 299 295 290 289 291 292 294 296 293 291 287 287 284 283 281 281 281 277 276 274 274 276 275 270 267 277 277 277 270 274 277 281 278 272 264 247 230 217 206 195 188 184 176 178 180 179 180 187 192 176 169 168 171 171 170 173 177 176 177 174 179 180 177 178
282 279 273 273 273 274 281 286 282 277 273 277 287 297 300 308 311 306 305 309 315 319 318 307 305 302 300 298 296 295 293 290 292 294 291 285 282 280 281 280 281 276 272 274 273 270 275 279 280 280 279 274 264 272 276 276 273 258 237 221 216 206 193 185 178 176 177 176 178 178 181 193 199 172 168 170 171 172 177 176 179 180 177 177 180 180 181
267 271 281 284 283 278 277 278 283 296 313 314 306 300 297 299 309 324 323 319 309 309 302 298 301 297 294 294 296 298 293 292 298 301 295 290 289 282 278 273 273 273 271 270 268 273 277 282 285 284 283 280 277 273 271 270 268 245 225 214 209 201 189 179 178 178 178 177 175 177 182 180 192 192 175 174 176 180 179 177 175 182 179 180 183 182 177
279 277 277 279 287 288 283 287 310 313 305 299 299 307 321 328 320 314 310 304 299 297 292 298 296 292 288 288 289 288 288 291 292 296 296 293 285 279 276 278 274 270 269 267 270 273 275 280 284 285 286 285 282 277 273 270 256 231 221 209 204 193 186 180 179 178 178 177 180 180 180 184 190 193 182 180 188 185 181 173 178 179 180 183 185 182 176
284 289 292 313 324 320 322 314 307 299 303 313 317 328 323 321 324 320 314 310 307 298 290 289 293 292 292 290 290 286 285 286 287 290 291 290 289 288 285 277 270 269 272 274 273 275 278 283 287 288 288 285 283 278 270 262 241 224 215 203 197 192 183 181 175 174 179 180 181 177 178 182 186 202 242 205 181 179 183 190 187 182 176 183 186 179 180
287 289 300 340 328 298 293 294 302 323 336 336 327 326 326 317 315 316 311 311 313 313 309 300 287 282 282 285 287 283 282 280 279 281 284 287 287 282 280 281 283 279 274 271 276 280 283 289 289 288 287 285 288 285 265 245 225 218 204 196 191 186 180 181 176 173 174 176 180 179 180 180 179 184 176 213 235 223 207 190 191 196 191 186 179 178 179
289 300 325 317 306 288 300 309 316 322 339 345 317 319 320 315 314 316 315 311 308 304 303 301 297 286 281 280 279 278 280 280 280 279 281 283 278 276 277 274 274 277 282 286 285 286 294 296 294 295 294 293 292 288 270 238 217 212 198 191 189 185 180 178 174 175 177 176 176 179 178 176 179 174 177 176 194 261 266 205 206 205 211 203 187 183 181
291 301 297 304 307 301 299 298 309 327 332 335 323 320 323 320 317 317 314 311 306 298 294 295 296 292 283 280 272 272 276 280 280 280 286 286 284 285 285 283 281 288 293 297 302 306 305 309 308 303 297 295 297 290 270 234 207 205 202 195 192 183 177 173 173 175 176 175 176 178 173 175 176 175 172 173 177 164 73 149 176 192 200 195 182 185 183
289 303 317 312 298 288 298 319 311 321 323 320 317 313 313 313 310 308 304 300 298 297 292 288 290 291 287 281 278 274 275 274 275 278 284 283 281 287 305 322 328 330 330 335 340 339 335 323 311 302 300 307 308 295 271 236 202 201 197 196 192 180 172 170 168 172 174 175 176 179 180 176 178 180 180 177 175 169 155 139 112 119 162 172 174 169 168
319 359 346 325 313 279 145 3 304 313 318 320 315 315 316 314 311 307 302 299 295 291 289 290 285 288 283 277 269 265 261 270 274 272 270 286 329 353 347 335 359 8 12 7 358 348 340 339 339 342 337 332 320 304 280 239 199 194 188 183 180 170 162 160 167 169 170 170 170 173 172 175 176 178 176 170 164 167 175 172 173 172 169 167 170 169 166
342 2 16 299 294 309 310 311 309 307 310 316 321 319 320 317 312 312 312 311 316 317 314 319 320 317 305 279 275 275 257 253 269 328 19 14 351 344 342 354 20 13 19 13 2 352 348 343 345 344 341 335 323 313 316 264 177 157 152 150 146 144 153 158 150 151 157 159 166 173 175 179 178 179 172 169 173 178 173 170 169 165 157 163 163 169 157
338 326 312 281 280 288 295 303 307 311 313 320 319 316 317 320 321 320 321 323 321 322 329 336 340 339 346 347 349 343 4 23 30 26 15 7 7 357 349 352 14 18 25 14 5 355 347 353 351 347 338 331 330 332 360 54 84 105 108 112 107 108 119 121 120 119 115 121 131 138 144 142 155 160 163 166 169 163 167 170 165 155 150 140 128 131 138
319 314 307 302 299 300 309 312 314 320 328 330 329 326 326 325 327 331 332 330 332 336 333 337 341 349 355 2 9 14 20 25 27 26 20 14 13 11 5 348 355 25 20 17 4 350 348 349 353 351 343 327 335 356 18 47 56 65 72 75 81 93 100 98 102 98 96 100 103 112 111 113 125 133 138 150 159 162 162 161 152 151 151 157 157 157 158
301 304 300 297 293 304 316 315 318 322 328 333 333 328 329 333 334 332 334 330 338 341 339 343 351 352 355 356 357 7 16 20 22 22 19 16 20 21 22 24 34 27 15 360 351 353 352 356 355 353 335 323 340 6 27 46 54 61 63 67 71 78 83 82 78 86 91 91 90 94 94 99 106 116 127 129 132 136 138 134 140 146 149 153 157 158 153
300 302 304 286 293 312 308 313 321 332 339 338 335 337 335 339 339 338 336 338 344 345 344 351 356 355 353 353 355 358 7 16 17 18 16 15 14 12 19 27 30 29 17 9 4 2 2 3 4 341 330 334 349 18 29 46 54 59 58 62 64 62 62 67 75 72 78 79 77 79 87 100 98 105 113 122 132 131 133 135 139 141 146 150 149 149 148
307 314 325 336 328 328 328 339 342 338 341 338 332 326 330 333 335 341 335 336 344 348 353 352 348 348 352 351 357 3 3 360 18 19 12 9 5 12 14 22 28 27 23 14 10 4 4 360 340 332 339 353 13 21 31 41 52 60 62 65 64 62 63 63 72 77 70 70 67 72 75 76 82 87 90 97 100 107 114 119 120 116 111 103 100 108 131
300 291 293 303 308 314 319 323 331 330 332 330 329 329 335 339 344 341 342 347 343 345 351 351 344 347 349 356 2 8 6 18 18 8 2 2 6 13 16 22 27 32 30 23 20 14 1 349 345 338 348 21 25 24 28 39 48 52 57 60 61 62 59 56 58 66 71 64 70 67 68 69 71 79 85 85 83 85 90 96 93 97 93 87 92 90 127
299 295 291 291 296 300 301 312 322 327 328 326 333 339 343 347 352 351 351 350 347 345 339 348 350 349 354 0 6 12 17 17 10 5 357 2 0 1 360 10 24 31 31 28 19 9 346 345 354 348 350 25 32 29 28 39 48 58 59 66 64 52 53 60 54 53 61 70 68 72 72 72 74 70 75 78 79 84 84 83 89 95 94 99 102 99 98
301 297 293 294 294 296 299 315 325 325 319 322 339 344 348 356 357 356 354 353 347 348 346 345 352 1 8 9 7 5 7 12 13 6 5 3 350 348 359 17 19 21 15 25 16 7 357 360 10 19 23 23 27 19 25 35 49 51 59 60 65 65 66 65 69 68 51 37 50 52 48 56 52 49 59 73 74 77 79 84 84 81 82 78 75 74 73
292 291 288 289 290 295 297 321 338 332 331 340 359 4 360 358 358 352 355 357 355 353 352 355 5 7 4 4 8 10 9 1 6 7 351 3 2 10 19 27 23 15 10 26 5 1 6 6 8 23 28 28 28 21 25 33 44 46 54 56 60 59 60 62 58 64 62 62 61 61 61 67 67 63 63 70 73 72 75 77 71 70 67 65 62 65 70
298 298 296 294 296 299 302 311 343 345 338 347 14 15 5 354 347 354 355 358 355 353 353 359 358 357 1 5 16 20 16 5 352 356 0 6 10 24 33 29 22 10 23 15 350 0 5 3 5 11 19 24 32 34 28 32 44 50 53 51 57 58 62 65 62 60 62 59 61 63 61 63 63 50 59 65 68 74 76 74 72 72 68 69 69 68 66
309 304 302 305 301 307 311 320 355 4 0 4 8 11 8 1 351 356 1 3 356 356 355 356 353 1 3 2 4 9 16 10 3 355 10 7 6 32 39 33 28 23 15 3 5 12 7 11 5 6 13 8 9 22 19 27 45 51 51 55 54 57 56 58 60 61 55 59 60 64 69 70 67 55 48 51 59 61 59 62 69 75 68 61 62 65 67
317 325 318 319 319 320 328 344 358 10 10 7 17 19 4 3 359 359 359 7 1 359 355 355 4 8 359 360 1 4 1 9 11 8 359 348 8 19 19 29 20 15 8 8 9 12 11 12 11 10 10 10 11 8 18 25 31 39 43 42 46 50 52 54 60 65 63 63 66 69 66 51 50 53 58 59 58 50 47 52 55 53 64 68 62 62 64
323 328 327 325 322 330 337 349 356 7 13 11 17 21 19 15 3 4 3 360 350 353 360 4 8 8 5 3 359 354 347 349 7 20 9 10 19 14 24 27 4 5 7 6 7 9 13 17 19 14 9 11 17 22 21 24 28 29 32 30 31 33 38 36 41 45 41 42 48 51 48 43 53 50 48 49 49 45 47 50 52 47 45 51 51 52 54
327 333 327 331 328 334 339 345 355 0 11 14 12 13 20 21 19 8 355 353 356 1 5 7 13 10 7 7 6 5 5 1 352 6 26 29 23 11 25 19 3 5 5 7 6 9 11 15 19 23 18 16 18 23 27 31 28 28 37 38 38 37 42 41 42 37 37 46 58 58 43 38 47 51 47 48 46 44 45 46 47 46 42 45 49 46 48
333 337 334 330 332 329 335 346 1 356 358 9 11 11 16 23 23 13 6 5 8 10 9 5 359 2 7 12 16 19 13 2 2 354 12 28 32 31 28 7 3 6 8 12 12 14 16 16 19 22 23 26 26 23 25 27 25 27 31 36 41 40 39 41 41 39 39 43 40 39 42 42 41 47 48 45 45 42 42 43 48 46 46 44 45 45 44
321 327 328 332 334 333 335 342 346 352 1 2 8 5 7 19 24 22 14 11 12 13 15 11 9 5 3 358 5 18 18 11 8 357 1 359 12 21 19 13 7 3 11 12 13 18 19 20 22 22 23 25 26 25 23 24 26 30 30 29 35 41 42 41 39 38 41 44 41 37 39 44 47 44 44 44 47 45 47 43 43 43 46 43 44 44 45
318 351 359 359 342 341 347 354 356 354 345 357 360 12 6 12 15 21 21 18 13 12 13 15 11 10 5 4 8 7 13 19 13 358 13 11 15 11 4 5 6 7 11 14 15 17 21 21 22 23 25 25 27 27 26 24 28 29 27 32 34 39 43 45 46 49 41 40 39 40 40 47 45 47 50 51 52 51 49 47 44 40 44 43 42 43 38
11 25 22 9 358 354 352 356 347 346 336 343 353 14 14 8 4 11 22 21 16 10 10 11 16 14 11 5 357 357 1 14 25 23 24 23 20 351 354 5 7 9 11 15 20 18 17 19 21 23 23 26 26 29 28 30 27 34 34 34 37 35 36 35 38 43 42 48 49 48 48 49 49 50 52 56 54 54 53 55 57 50 51 51 54 54 52
31 32 31 22 355 350 352 360 358 1 0 6 14 8 2 2 4 5 11 16 20 13 9 9 13 11 13 12 12 5 358 355 12 22 16 9 8 4 358 5 10 10 12 15 17 20 19 18 20 22 23 25 29 30 29 31 32 33 29 33 33 36 35 38 39 42 41 45 43 46 47 46 48 47 44 46 49 47 43 46 52 47 42 46 44 45 45
43 31 37 35 5 355 353 10 18 20 15 15 1 355 354 353 359 5 3 1 3 9 13 11 6 3 1 6 10 14 10 356 353 4 10 4 1 3 2 3 7 10 12 12 15 13 17 21 21 21 23 24 24 28 29 30 31 33 30 30 35 35 37 38 34 35 37 36 37 41 38 39 38 41 42 44 42 42 43 46 45 43 44 45 47 45 46
55 39 38 42 28 12 12 23 29 26 15 356 354 349 345 341 353 3 5 360 352 356 3 6 3 358 0 7 11 10 9 10 26 349 342 357 357 2 1 1 5 10 10 11 11 7 8 13 18 20 20 21 22 23 23 27 30 30 29 32 30 31 32 34 35 33 38 38 40 40 42 41 42 41 41 38 39 36 38 37 37 43 42 40 39 37 36
65 50 51 56 42 28 21 21 32 20 1 352 344 341 341 340 357 4 1 358 351 347 353 352 4 359 356 355 360 0 3 0 358 358 351 355 359 360 3 3 3 8 13 10 7 8 5 7 12 18 18 13 15 19 18 19 27 30 32 30 31 31 32 32 33 35 36 35 33 37 36 35 32 36 36 33 35 34 33 32 29 30 34 32 30 23 20
66 56 49 46 55 51 39 41 29 14 6 356 344 341 350 356 1 359 357 357 349 348 346 339 344 359 350 348 351 356 358 357 359 2 0 355 1 1 6 6 8 8 6 8 9 3 2 4 4 8 14 13 11 16 21 20 17 24 24 27 24 19 22 27 25 23 22 28 26 28 38 35 29 33 34 31 34 32 26 30 27 21 21 22 12 357 353
105 98 52 42 44 49 56 36 30 23 6 354 342 341 340 351 339 335 347 2 355 338 336 334 336 349 2 344 346 347 350 356 352 351 356 354 357 350 354 1 3 7 6 6 2 358 1 5 3 7 10 13 10 10 14 20 18 16 19 20 21 15 16 21 24 21 13 14 17 21 12 21 37 28 19 18 21 19 15 9 6 0 347 343 343 342 333